www.pogodaiklimat.ru

Погода и климат >> Архив погоды >> Россия >> Забайкальский край >> Красный Чикой


АРХИВ ПОГОДЫ в Красном Чикое

Время (UTC), дата Ветер
(напр.,м/с)
 
Видим.   Явления Облачность Т
(С)
Тd
(С)
f
(%)
Тe
(С)
Тes
(С)
Комфортность P
(гПа)
Po
(гПа)
Тmin
(С)
Tmax
(С)
R
(мм)
R24
(мм)
S
(см)
18 19.05 штиль 0 50 км ясно -1.9 -8.2 62 -3 -3 1020.8 927.3
21 19.05 СВ 1 50 км ясно -5.4 -9.0 76 -8 -8 1021.9 927.2
00 20.05 ЮВ 1 50 км ясно +3.4 -7.1 46 +3 +8 1018.8 927.2 -6.0
03 20.05 ЮВ 3 50 км ясно +14.9 -10.9 16 +15 +27 опасность
простуды
1012.5 924.9
06 20.05 С 4
{10}
50 км ясно +18.5 -12.2 11 +18 +29 1009.0 922.7
09 20.05 З 3
{10}
50 км ясно +19.5 -10.3 12 +19 +25 1007.4 921.5
12 20.05 СЗ 2 50 км ясно +17.1 -9.9 15 +18 +18 1008.1 921.5 +20.2
15 20.05 СВ 1 50 км ясно +6.7 -6.6 38 +7 +7 1012.6 922.6
18 20.05 ЮВ 1 50 км ясно +1.4 -6.5 56 0 0 1014.9 923.1
21 20.05 СЗ 1 50 км 6/0
[Ci fib]
-2.3 -6.4 73 -4 -4 1016.6 923.4
00 21.05 В 1 50 км 10/0
[Ac lent Ci fib]
+4.7 -5.0 49 +4 +6 1014.1 923.3 -2.5
03 21.05 В 1 50 км 10/0
[Ac lent Ci fib]
+15.0 -4.6 26 +16 +21 1009.4 922.1
06 21.05 В 1 50 км 4/0
[Ac lent]
+22.7 -7.2 13 +21 +33 комфорт 1003.3 918.6
09 21.05 ЮВ 2 50 км 10/0
[Ac lent Ci fib]
+25.2 -6.3 12 +23 +26 комфорт 999.2 915.6
12 21.05 СВ 1 50 км 10/3 1000 м
[Cu hum Ac lent Ci fib]
+20.3 -3.8 19 +21 +21 комфорт 1000.3 915.4 +25.7
15 21.05 СВ 1 50 км 6/0
[Ac lent Ci fib]
+10.3 -1.9 42 +10 +10 1003.5 915.4
18 21.05 штиль 0 50 км 3/0
[Ci fib]
+5.7 -1.3 61 +5 +5 1004.8 915.2
21 21.05 штиль 0 50 км 4/0
[Ci fib]
+2.0 -2.0 75 +1 +1 1005.9 915.1
00 22.05 В 2 50 км 4/0
[Ac trans Ci fib]
+9.3 -0.1 52 +8 +12 1003.0 914.7 +1.5
03 22.05 Ю 1 50 км 10/0
[Ci fib]
+20.4 -1.1 24 +21 +35 комфорт 996.9 912.2
06 22.05 В 1 50 км 4/1 1000 м
[Cu hum Ci fib]
+30.5 -1.8 12 +27 +43 жарко 990.5 909.0
09 22.05 СЗ 6-10
{12}
50 км 10/4 1000 м
[Cb cap Ac lent Ci sp]
+30.9 -2.0 12 +28 +28 жарко 989.7 908.4
12 22.05 Ю 1
{13}
50 км 10/0
[Ac lent Ci fib]
+25.0 -0.4 19 +23 +24 комфорт 992.4 909.4 +31.2
15 22.05 ЮЗ 2 10 км дым 10/0
[Ac lent Ci fib]
+21.0 +0.2 25 +22 +22 комфорт 996.6 912.2
18 22.05 СВ 1 10 км дым 8/0
[Ac lent Ci fib]
+16.3 +1.1 36 +17 +17 999.8 913.8
21 22.05 Ю 1 50 км 3/0
[Ci fib]
+9.1 +2.4 63 +9 +9 1001.0 912.8
00 23.05 В 1 50 км 10/0
[Ac lent Ci fib]
+15.0 +3.7 47 +16 +19 998.5 912.3 +8.1
03 23.05 С 1 50 км 10/0
[Ac lent Ci fib]
+23.6 +3.8 28 +23 +34 комфорт 992.5 909.2
06 23.05 ЮЗ 1 50 км 10/3 1000 м
[Cb cap Ac lent Ci fib]
+30.0 +2.2 17 +28 +34 жарко 987.4 906.1
09 23.05 СЗ 6-10
{14}
50 км 10/3 1000 м
[Cb cap Ac lent Ci fib]
+27.9 +1.2 18 +26 +27 жарко 988.1 906.2
12 23.05 -23
{23}
50 км н/о +20.5 +1.1 27 +20 +20 995.0 910.6 +31.1
15 23.05 С 4-11
{20}
50 км 6/3 1000 м
[Cb cap Ci sp]
+14.5 +0.2 38 +14 +14 1004.6 917.6
18 23.05 штиль 0
{11}
50 км 8/1 1000 м
[Cu hum Ac lent Ci sp]
+10.8 +3.8 62 +10 +10 1008.0 919.8
21 23.05 С 2 50 км 10/3 1000 м
[Cb cap Ac As]
+8.8 +2.0 62 +7 +7 1010.8 921.7
00 24.05 С 3 50 км 10/4 1000 м
[Sc Ac lent Ci fib]
+9.2 +0.9 56 +7 +8 1012.0 922.9 +8.4
03 24.05 С 2 50 км 10/3 1000 м
[Sc Ac As]
+11.2 +0.2 47 +10 +14 1011.3 922.8
06 24.05 В 1 50 км 10/3 1000 м
[Cu hum Ac lent Ci fib]
+14.4 -3.9 28 +15 +22 1009.1 921.7
09 24.05 С 4 50 км 10/4 1000 м
[Cu hum Ac lent Ci fib]
+15.3 -4.8 25 +15 +16 1008.0 920.9
12 24.05 С 4 10 км дым 10/0
[Ac lent Ci fib]
+13.5 -5.7 26 +12 +12 1008.6 921.0 +15.9
15 24.05 СВ 3
{11}
10 км дым 10/0
[Ac lent Ci fib]
+11.6 -8.0 25 +11 +11 1010.5 922.1
18 24.05 СВ 1 10 км дым 10/0
[Ac lent Ci fib]
+8.0 -6.1 36 +8 +8 1013.2 923.5
21 24.05 С 1 50 км 10/0
[Ac lent Ci fib]
+6.3 -4.4 46 +6 +6 1015.3 924.9
00 25.05 ЮЗ 1 50 км 10/0
[Ac lent Ci fib]
+8.6 -1.8 48 +8 +10 1016.4 926.6 +4.4
03 25.05 С 4 50 км 10/3 1000 м
[Cu med, cong Ac lent Ci fib]
+14.2 -6.0 24 +13 +17 1014.8 926.8
06 25.05 СЗ 5
{10}
50 км 10/6 1000 м
[Cu med, cong Ac lent Ci fib]
+16.0 -7.2 20 +15 +17 1013.9 926.5
09 25.05 С 5-10
{17}
50 км 10/6 1000 м
[Cb cap Ac lent Ci fib]
+16.2 -8.8 17 +15 +16 1013.9 926.5
12 25.05 С 4
{10}
50 км 10/4 1000 м
[Cu hum Ac lent Ci fib]
+14.3 -10.1 17 +13 +13 1016.5 928.4 +17.2
15 25.05 ЮВ 2
{11}
50 км 10/4 1000 м
[Cu hum Ac lent Ci fib]
+10.0 -8.0 27 +9 +9 1020.3 930.6
18 25.05 С 1 50 км 4/0
[Ci fib]
+3.0 -7.7 45 +2 +2 1024.9 932.7
21 25.05 ЮЗ 1 50 км 4/0
[Ac lent Ci fib]
-2.0 -5.8 75 -4 -4 1028.1 934.0
00 26.05 Ю 1 50 км ясно +7.5 -5.1 40 +7 +13 1026.3 935.3 -2.0
03 26.05 З 2 50 км 3/3 1000 м
[Cu hum]
+15.3 -8.0 19 +15 +26 опасность
простуды
1022.7 934.3
06 26.05 С 3 50 км 8/5 1000 м
[Cb cap Ci sp]
+17.2 -9.6 15 +17 +23 1020.0 932.4
09 26.05 З 3 50 км 4/3 1000 м
[Cu hum Ci fib]
+18.5 -10.6 13 +19 +22 1017.8 930.7
12 26.05 СЗ 2 50 км 4/0
[Ci fib]
+16.0 -10.0 16 +16 +16 1018.6 930.8 +19.1
15 26.05 В 1 50 км 3/0
[Ci fib]
+5.6 -7.0 40 +5 +5 1023.0 931.7

 

Местоположение метеостанции Красный Чикой (Забайкальский край, Россия): широта 50.37 долгота 108.70 высота над уровнем моря 771 м.

В архиве по умолчанию представлена погода в Красном Чикое за последнюю неделю. Архивные данные за месяц целиком и за предыдущие месяцы, начиная с января 2011 года, Вы можете получить, выбрав интересующий диапазон дат из раскрывающегося списка и нажав кнопку "Ввод!".


*Определитесь, кто Вы:
робот инопланетянин человек

Внимание! Время в таблицах - всемирное. Для получения местного времени необходимо прибавить поправку, которая равна 9 ч.

Смотрите также архив погоды в соседних городах и на ближайших метеорологических станциях:

Погода в Бичуре (Бурятия, Россия) (89 км)
Погода в Улыгайин Дуганг (Монголия) (92 км)
Погода в Мухоршибири (Бурятия, Россия) (97 км)
Погода в Черемхово (Забайкальский край, Россия) (102 км)
Погода в Мензе (Забайкальский край, Россия) (105 км)
Погода в Петровском Заводе (Забайкальский край, Россия) (106 км)
Погода в Хадатыне (Монголия) (148 км)
Погода в Хилке (Забайкальский край, Россия) (163 км)
Погода в Кяхте (Бурятия, Россия) (163 км)
Погода в Новоселенгинске (Бурятия, Россия) (169 км)

Пояснения к столбцам:

Ветер - указаны скорость ветра в м/с - средняя за 10 мин, порывы в срок и между сроками (в фигурных скобках) и направление, откуда дует ветер: С - северный, СВ - северо-восточный, В - восточный, ЮВ - юго-восточный, Ю - южный, ЮЗ - юго-западный, З - западный, СЗ - северо-западный.
Видимость - горизонтальная дальность видимости в метрах или километрах. При видимости от 1 до 10 км при отсутствии осадков обычно наблюдается дымка, при ухудшении видимости до 1 км и менее - туман. В сухую погоду видимость может ухудшаться дымом, пылью или мглою.
Явления - указаны атмосферные явления, наблюдавшиеся в срок или в последний час перед сроком; фигурными скобками обозначены явления, наблюдавшиеся между сроками (за 1-3 часа до срока); квадратными скобками обозначены град или гололедные отложения с указанием их диаметра в мм.
Облачность - указаны через наклонную черту общая и нижняя облачность в баллах и высота нижней границы облаков в метрах; квадратными скобками обозначены формы облаков: Ci - перистые, Cs - перисто-слоистые, Cc - перисто-кучевые, Ac - высококучевые, As - высокослоистые, Sc - слоисто-кучевые, Ns - слоисто-дождевые, Cu - кучевые, Cb - кучево-дождевые. Подробнее классификацию облаков см. в Атласе облаков (PDF).
T - Температура воздуха - температура, измеренная на высоте 2 м над землей.
Td - Температура точки росы - температура, при понижении до которой содержащийся в воздухе водяной пар достигнет насыщения.
f - Относительная влажность воздуха - влажноcть воздуха, измеренная на высоте 2 м над землей.
Te - Эффективная температура - температура, которую ощущает одетый по сезону человек в тени. Характеристика душности погоды. При расчете учитывается влияние влажности воздуха и скорости ветра на теплоощущения человека.
Tes - Эффективная температура на солнце - температура, которую ощущает человек, с поправкой на солнечный нагрев. Характеристика знойности погоды. Зависит от высоты солнца над горизонтом, облачности и скорости ветра. Ночью, в пасмурную погоду, а также при ветре 12 м/с и более поправка равна нулю.
P - Атмосферное давление - приведенное к уровню моря атмосферное давление.
Po - Атмосферное давление - измеренное на уровне метеостанции атмосферное давление.
Tmin - Минимальная температура - минимум температуры воздуха на высоте 2 м над землей.
Tmax - Максимальная температура - максимум температуры воздуха на высоте 2 м над землей.
R - Количество осадков - Количество выпавших осадков за период времени, мм. При наведении курсора мыши на число - период времени, за который выпало указанное количество осадков.
R24 - Количество осадков - Количество выпавших осадков за 24 часа, мм.
S - Снежный покров - Высота снежного покрова, см. При наведении курсора мыши на число - состояние снежного покрова и степень покрытия местности в баллах.